Location: Washington
(38.8950°N, 77.0370°W)
Time: 02:17:48
(UTC-04:00)

Tiangong 1 - Visible Passes

Search period start: 25 October 2014 00:00
Search period end: 03 November 2014 23:00
Orbit: 351 x 361 km, 42.8° (Epoch: 24 October)

Date Brightness Start Highest point End Pass type
(mag) Time Alt. Az. Time Alt. Az. Time Alt. Az.
25 Oct 1.1 19:29:47 10° W 19:32:45 63° NNW 19:33:38 39° NE visible
26 Oct 2.2 19:57:11 10° WNW 19:59:30 35° NW 19:59:30 35° NW visible
27 Oct 1.4 18:47:55 10° W 18:50:51 53° NNW 18:53:36 11° ENE visible
27 Oct 3.9 20:24:25 10° WNW 20:25:12 16° WNW 20:25:12 16° WNW visible
28 Oct 1.9 19:15:04 10° WNW 19:17:53 37° N 19:19:11 24° NE visible
29 Oct 1.8 19:42:00 10° WNW 19:44:38 38° N 19:44:38 38° N visible
30 Oct 1.9 18:32:27 10° WNW 18:35:15 36° N 18:38:02 10° ENE visible
30 Oct 3.2 20:08:38 10° WNW 20:09:59 23° WNW 20:09:59 23° WNW visible
31 Oct 1.6 18:59:05 10° WNW 19:01:56 40° N 19:03:41 19° ENE visible
31 Oct 4.6 20:35:08 10° WNW 20:35:16 11° WNW 20:35:16 11° WNW visible
01 Nov 0.9 19:25:27 10° WNW 19:28:24 69° NNE 19:28:55 53° ENE visible
02 Nov 2.0 18:51:43 10° WNW 18:54:07 42° WSW 18:54:07 42° WSW visible
03 Nov 0.8 17:41:45 10° WNW 17:44:43 81° NNE 17:47:40 10° ESE visible
03 Nov 4.0 19:18:23 10° W 19:19:20 15° WSW 19:19:20 15° WSW visible
